Location: Góry Miechowskie
(50.3599°N, 20.1803°E)
Time: 01:05:29
(UTC+00:00)

Resurs 1-4 Rocket - Visible Passes

Search period start: 18 September 2024 00:00
Search period end: 28 September 2024 00:00
Orbit: 798 x 813 km, 98.8° (Epoch: 17 September)

Date Brightness Start Highest point End Pass type
(mag) Time Alt. Az. Time Alt. Az. Time Alt. Az.
18 Sep 2.2 01:20:26 10° N 01:25:22 61° NW 01:25:22 61° NW visible
18 Sep 4.0 03:02:10 10° NNW 03:04:25 13° NW 03:06:25 11° WNW visible
18 Sep 4.6 23:17:22 10° NE 23:18:57 13° ENE 23:18:57 13° ENE visible
19 Sep 2.3 00:55:24 10° NNE 01:00:00 68° NNE 01:00:00 68° NNE visible
19 Sep 3.6 02:36:17 10° NNW 02:39:51 19° NW 02:41:03 17° WNW visible
20 Sep 2.9 00:30:30 10° NNE 00:34:38 47° ENE 00:34:38 47° ENE visible
20 Sep 3.2 02:10:49 10° N 02:15:11 27° WNW 02:15:40 27° WNW visible
21 Sep 3.6 00:05:46 10° NNE 00:09:15 30° ENE 00:09:15 30° ENE visible
21 Sep 2.7 01:45:32 10° N 01:50:18 40° WNW 01:50:18 40° WNW visible
21 Sep 4.2 23:41:17 10° NE 23:43:53 20° ENE 23:43:53 20° ENE visible
22 Sep 2.3 01:20:23 10° N 01:24:55 57° NW 01:24:55 57° NW visible
22 Sep 4.0 03:02:07 10° NNW 03:04:22 13° NW 03:05:58 11° WNW visible
22 Sep 4.7 23:17:20 10° NE 23:18:30 13° ENE 23:18:30 13° ENE visible
23 Sep 2.6 00:55:21 10° NNE 00:59:33 58° NNE 00:59:33 58° NNE visible
23 Sep 3.6 02:36:14 10° NNW 02:39:48 19° NW 02:40:36 18° WNW visible
24 Sep 3.2 00:30:27 10° NNE 00:34:10 41° NE 00:34:10 41° NE visible
24 Sep 3.2 02:10:45 10° N 02:15:08 27° WNW 02:15:13 27° WNW visible
25 Sep 3.8 00:05:43 10° NNE 00:08:47 28° ENE 00:08:47 28° ENE visible
25 Sep 2.8 01:45:28 10° N 01:49:50 39° NW 01:49:50 39° NW visible
25 Sep 4.4 23:41:14 10° NE 23:43:24 18° ENE 23:43:24 18° ENE visible
26 Sep 2.6 01:20:19 10° N 01:24:27 51° NNW 01:24:27 51° NNW visible
26 Sep 4.0 03:02:02 10° NNW 03:04:19 13° NW 03:05:30 12° WNW visible
26 Sep 4.8 23:17:17 10° NE 23:18:01 12° ENE 23:18:01 12° ENE visible
27 Sep 2.9 00:55:17 10° NNE 00:59:04 49° NNE 00:59:04 49° NNE visible
27 Sep 3.6 02:36:09 10° NNW 02:39:44 19° NW 02:40:07 19° WNW visible
